SCP
2 3 3 2 1 0 0 0 0 0 0 0 0 0 0 1 1 1 1 1 1 1 3 3 3 3 3 3 3 3 3 3 3 3 2 2 2 2 2 2 2 1 1 1 1 1 1 1 1
2 2 2 2 1 0 0 0 0 0 0 0 0 0 0 1 1 1 1 1 1 1 3 4 4 3 3 3 3 3 3 3 3 3 3 2 2 2 2 2 2 2 1 1 1 1 1 1 1
2 2 2 1 0 0 0 0 0 0 0 0 0 0 1 1 1 1 1 1 1 1 3 4 4 4 3 4 4 3 3 3 3 4 3 2 2 2 2 2 2 1 1 1 1 1 1 1 1
1 1 1 1 0 0 0 0 0 0 0 0 0 1 1 1 1 1 1 2 1 2 2 4 4 3 3 4 4 4 3 3 3 4 3 2 1 1 2 2 1 1 1 1 2 2 1 1 1
1 1 0 0 0 0 0 0 0 0 0 0 0 1 1 1 1 1 1 2 2 2 2 3 3 3 3 3 4 4 4 3 3 3 3 2 1 1 1 1 1 1 1 1 2 1 1 1 1
0 0 0 0 0 0 0 0 0 0 0 0 0 1 1 1 1 1 1 2 2 2 3 3 3 2 3 3 4 4 4 3 3 3 3 2 2 1 1 1 1 1 1 1 1 1 1 1 1
0 0 0 0 0 0 0 0 0 0 0 0 0 0 1 1 1 1 1 2 2 2 3 3 3 2 2 3 3 3 4 3 3 3 2 2 2 2 2 1 1 1 1 1 1 1 1 1 1
0 0 0 0 0 0 0 0 0 0 0 0 0 0 1 1 1 1 1 2 3 3 3 3 3 3 2 2 2 3 3 3 2 2 2 2 2 2 2 2 2 2 1 1 1 2 2 2 2
0 0 0 0 0 0 0 0 0 0 0 0 0 1 1 1 1 1 2 2 3 3 3 3 3 3 2 2 2 2 2 2 2 2 2 2 2 2 2 1 2 2 2 1 2 2 2 2 1
0 0 0 0 0 0 0 0 0 0 0 0 1 1 1 1 1 1 2 2 2 3 3 3 3 3 3 3 2 2 2 2 2 2 2 2 2 2 1 1 1 2 1 1 1 2 2 2 1
0 0 0 0 0 0 0 0 0 0 0 0 1 1 1 1 1 1 2 2 2 2 3 3 3 4 4 4 3 3 3 3 2 2 2 2 2 2 1 2 2 2 2 1 1 1 1 1 1
0 0 0 0 0 0 0 0 0 0 0 0 1 1 1 1 1 1 1 2 2 3 3 3 4 4 5 5 4 5 4 3 3 3 3 3 3 2 1 2 3 4 4 2 2 1 1 1 1
0 0 0 0 0 0 0 0 0 0 0 0 1 1 1 1 1 1 1 2 2 3 3 4 4 4 5 5 5 4 4 3 3 3 3 3 3 2 1 2 4 5 4 3 1 1 1 1 1
0 0 0 0 0 0 0 0 0 0 0 0 1 1 1 1 1 1 1 1 2 3 3 4 4 4 4 4 4 4 3 2 2 3 3 3 2 1 1 2 4 5 4 2 1 1 1 1 1
0 0 0 0 0 0 0 0 0 0 0 1 1 1 1 1 1 1 1 1 1 3 3 4 4 4 4 4 4 3 2 2 2 2 3 3 2 1 1 1 3 4 3 2 1 1 1 1 1
0 0 0 0 0 0 0 0 0 0 0 1 1 1 1 2 1 1 1 0 1 2 3 4 4 4 4 4 3 3 2 2 2 2 2 2 1 1 1 1 2 3 3 2 1 0 0 1 1
0 0 0 0 0 0 0 0 0 0 0 1 1 1 2 2 1 1 1 1 1 2 3 4 4 4 4 4 3 3 2 2 2 2 2 2 1 1 1 1 2 2 2 2 1 0 0 0 0
0 0 0 0 0 0 0 0 0 0 0 1 1 2 2 2 1 1 1 1 1 1 2 3 4 5 4 4 3 3 3 2 2 2 2 2 1 1 1 1 1 2 2 1 1 0 0 0 0
0 0 0 0 0 0 0 0 0 0 0 1 1 2 2 1 1 1 1 1 1 1 2 3 4 4 4 3 2 2 3 3 3 2 2 2 2 1 1 1 1 1 1 1 0 0 0 0 0
0 0 0 0 0 0 0 0 0 0 0 1 1 1 1 1 1 1 1 1 1 1 1 2 3 4 3 2 1 1 2 3 3 3 2 2 2 2 1 1 1 1 1 1 0 0 0 0 0
0 0 0 0 0 0 0 0 0 0 1 1 1 1 1 0 0 0 0 0 1 1 1 2 3 3 3 1 1 0 1 1 2 2 3 3 2 2 2 1 1 1 1 0 0 0 0 0 0
0 0 0 0 0 0 0 0 0 0 1 1 1 1 0 0 0 0 0 0 0 1 1 2 3 3 3 1 0 0 0 0 1 1 2 2 2 2 2 1 1 0 0 0 0 0 0 0 0
0 0 0 0 0 0 0 0 0 0 0 0 0 0 0 0 0 0 0 0 0 1 1 2 3 4 3 1 0 0 0 0 0 0 1 1 2 2 2 2 1 0 0 0 0 0 0 0 0
0 0 0 0 1 0 0 0 0 0 0 0 0 0 0 0 0 0 0 0 0 0 1 2 3 4 3 2 0 0 0 0 0 0 0 0 1 1 2 2 1 1 0 0 0 0 0 0 0
0 0 0 1 1 0 0 0 0 0 0 0 0 0 0 0 0 0 0 0 0 0 1 2 2 3 2 1 0 0 0 0 0 0 0 0 0 0 1 1 2 1 0 0 0 0 0 0 0
0 0 1 1 1 0 0 0 0 0 0 0 0 0 0 0 0 0 0 0 0 0 1 1 2 2 1 0 0 0 0 0 0 0 0 0 0 0 0 1 1 1 1 0 0 0 0 0 0
0 0 1 1 1 0 0 0 0 0 0 0 0 0 0 0 0 0 0 0 0 0 1 1 1 1 0 0 0 0 0 0 0 0 0 0 0 0 0 0 0 1 1 0 0 0 0 0 0
0 0 1 1 1 0 0 0 0 0 0 0 0 0 0 0 0 0 0 0 0 0 0 0 0 0 0 0 0 0 0 0 0 0 0 0 0 0 0 0 0 0 0 0 0 0 0 0 0
0 0 1 1 1 1 0 0 0 0 0 0 0 0 0 0 0 0 0 0 0 0 0 0 0 0 0 0 0 0 0 0 0 0 0 0 0 0 0 0 0 0 0 0 0 0 0 0 0
0 0 0 1 1 1 0 0 0 0 0 0 0 0 0 0 0 0 0 0 0 0 0 0 0 0 0 0 0 0 0 0 0 0 0 0 0 0 0 0 0 0 0 0 0 0 0 0 0
Wind_Speed
4 3 3 3 4 4 5 3 2 3 3 1 0 2 2 1 2 3 5 2 2 4 5 6 5 6 6 7 7 7 7 8 7 6 6 7 7 8 9 9 8 8 8 8 9 9 10 10 10
2 2 3 3 5 6 5 4 5 3 2 1 1 2 2 1 3 3 3 2 2 4 5 5 5 6 6 7 7 7 7 7 7 6 6 6 7 7 8 8 8 8 8 8 9 9 10 10 10
1 2 2 3 5 6 3 3 3 2 1 2 1 1 1 1 2 2 3 2 3 4 4 5 5 6 6 7 7 7 7 7 6 6 6 6 6 6 7 7 8 8 8 8 8 9 9 9 9
2 2 2 4 6 4 2 2 2 3 2 1 2 2 1 2 2 3 2 2 3 4 4 5 5 6 6 6 6 6 6 7 6 6 6 6 6 6 6 7 7 7 7 8 8 8 8 8 8
2 3 5 5 6 3 2 1 2 3 3 2 3 2 1 2 2 2 2 2 3 3 3 5 4 5 5 6 6 6 6 6 6 5 5 5 5 5 5 6 6 7 7 7 7 7 7 8 8
2 3 6 7 7 4 3 3 4 4 3 2 3 3 1 3 2 2 2 2 2 3 3 4 3 4 5 5 5 5 5 5 6 5 5 5 5 5 5 6 6 6 6 7 7 7 6 7 7
3 3 5 6 6 5 3 3 4 4 4 3 2 3 3 3 2 2 2 3 3 3 3 3 3 3 4 4 4 5 5 5 5 5 5 5 4 4 5 5 5 6 6 6 6 6 6 6 6
2 3 5 6 7 5 2 2 2 4 2 0 3 4 2 1 2 2 3 3 3 3 2 2 2 2 3 3 4 4 5 5 5 5 5 5 5 4 5 5 5 5 5 5 5 5 5 6 6
3 5 6 6 6 3 3 3 1 2 2 2 2 3 2 2 3 3 3 3 3 2 1 1 1 2 2 2 3 4 5 5 5 5 6 4 3 3 3 5 5 5 5 5 5 5 5 5 5
4 6 6 3 3 2 3 3 2 4 5 4 4 2 2 4 4 4 4 4 3 2 1 1 1 1 1 1 2 2 2 3 3 2 3 2 2 2 3 6 5 5 5 4 5 5 4 2 2
3 4 3 3 2 2 3 3 3 6 6 5 5 4 4 4 4 4 4 3 3 3 2 0 0 0 1 1 1 1 1 2 2 2 2 2 2 1 1 2 2 3 2 2 3 2 1 1 1
3 3 3 2 2 3 4 3 4 7 5 3 4 3 5 5 5 5 4 3 3 3 2 1 1 1 1 1 1 1 2 1 1 1 1 1 1 1 1 1 1 1 1 1 1 1 1 1 1
4 3 3 2 2 3 4 6 6 7 5 4 3 4 5 5 5 4 4 3 3 3 2 1 1 1 1 1 1 1 1 2 2 1 1 1 1 1 1 1 1 1 1 0 0 0 1 1 1
2 3 3 3 3 3 4 6 6 6 4 4 4 5 6 6 5 4 4 4 4 3 2 2 2 2 2 1 1 1 1 1 2 2 1 1 1 1 1 1 1 1 1 0 0 0 1 1 1
2 3 4 4 5 3 4 8 8 5 4 5 5 5 5 5 5 5 5 4 4 4 3 3 2 2 2 2 2 2 2 2 2 2 2 2 1 1 1 1 1 1 1 1 0 0 1 1 1
3 5 6 3 3 3 6 10 3 2 4 5 5 5 5 5 5 5 4 4 4 4 3 3 2 3 2 2 2 2 2 2 2 2 2 3 2 2 1 1 1 1 1 1 1 1 1 1 2
5 6 7 4 3 3 7 9 3 2 4 5 5 5 5 5 5 4 4 4 4 4 4 3 3 3 3 2 2 2 2 2 2 2 2 2 2 2 2 1 1 1 1 1 1 1 1 1 2
6 6 6 6 2 5 8 11 8 6 6 7 6 6 5 5 5 4 3 3 3 3 3 3 3 3 3 3 2 2 2 2 1 1 2 2 2 3 2 2 2 2 2 2 2 2 2 1 2
5 7 8 6 3 6 10 12 11 8 7 7 7 6 5 5 4 3 3 3 3 3 3 3 3 3 3 3 3 3 2 2 2 1 2 2 3 3 3 2 2 2 2 2 3 2 2 1 1
6 8 8 6 3 6 9 12 11 8 8 8 8 7 6 5 4 3 3 3 3 3 4 4 4 3 4 3 3 2 2 2 2 1 2 2 3 3 3 3 3 3 3 3 3 3 2 1 1
8 8 7 6 5 5 8 10 7 5 6 6 7 6 6 5 5 4 3 3 3 3 4 3 4 4 4 4 3 2 2 1 2 2 2 2 3 3 3 3 3 3 3 3 3 3 3 2 2
7 5 6 6 5 4 4 7 6 5 6 6 6 6 5 5 4 3 3 3 3 4 3 3 3 3 3 4 4 5 3 3 3 2 2 2 2 2 2 3 3 3 2 3 3 3 3 3 2
4 2 4 5 5 6 5 7 7 4 7 7 6 4 4 3 3 3 3 3 3 2 2 2 2 2 3 3 4 4 4 3 2 2 2 2 1 1 2 2 2 2 2 2 2 2 2 2 2
2 2 2 3 4 6 6 7 7 4 6 5 3 3 2 2 2 2 2 2 1 1 1 1 2 2 3 3 3 4 4 4 3 3 2 2 1 1 1 2 2 2 2 2 2 2 3 2 3
3 3 2 3 4 5 2 6 8 3 3 3 3 2 1 1 1 1 1 1 1 1 1 2 2 2 2 3 3 4 4 4 4 3 3 3 2 2 2 2 2 2 2 2 2 3 3 3 3
5 5 4 4 5 3 4 8 5 1 1 1 1 1 1 1 0 1 1 1 2 2 1 2 2 2 2 2 3 3 3 3 2 3 3 3 2 2 2 2 2 2 2 2 3 2 3 3 4
5 5 1 1 2 5 6 6 5 2 2 2 2 1 1 1 1 0 0 1 1 1 1 1 2 1 1 1 2 2 3 3 3 3 3 2 2 2 3 3 3 3 3 3 3 3 4 4 4
2 4 3 4 4 6 6 7 5 4 4 3 2 2 2 1 1 1 1 1 0 0 0 1 1 1 1 1 1 1 2 2 3 3 3 3 3 2 3 3 3 3 3 4 4 4 4 5 4
5 5 4 2 3 5 6 5 1 4 3 4 3 2 2 2 1 1 1 1 1 0 0 1 1 1 1 1 1 1 1 2 2 2 3 3 3 3 3 3 3 3 4 4 4 4 4 5 5
5 6 6 4 4 5 6 5 2 2 2 3 3 2 2 2 2 1 1 1 1 1 1 1 1 1 1 1 1 1 1 1 2 2 2 3 3 3 3 3 4 4 4 4 5 5 5 5 5
Wind_Direction
331 310 260 232 216 217 221 195 195 162 158 85 3 262 272 306 320 43 67 87 102 138 142 137 127 125 120 115 113 111 108 107 110 114 113 114 113 112 109 106 101 99 99 98 96 95 94 93 91
329 287 233 229 233 216 202 195 196 184 105 119 175 226 213 105 24 52 79 85 119 138 141 137 126 128 124 120 117 115 113 110 110 114 115 117 117 113 113 109 104 98 95 96 97 96 95 91 89
268 283 236 214 226 231 197 164 170 142 162 212 171 280 313 53 63 62 61 109 136 135 139 123 123 128 126 122 118 117 118 118 112 111 115 121 124 120 118 115 110 103 97 96 97 98 98 94 89
228 196 215 228 218 228 254 142 146 172 174 202 225 166 113 33 13 45 74 132 140 137 138 119 116 129 127 123 122 121 118 118 116 109 109 117 122 123 120 117 113 108 104 101 97 98 100 97 94
232 214 204 214 222 213 226 262 216 216 198 193 231 215 164 77 47 71 107 132 140 136 127 123 113 122 124 122 120 119 118 115 110 106 104 107 108 107 114 115 115 115 112 106 101 100 105 102 98
189 219 217 216 210 205 208 212 217 226 219 219 224 213 166 91 83 75 101 119 121 127 125 117 106 116 118 120 119 116 112 112 110 104 98 102 106 105 107 114 116 116 115 111 106 100 103 107 103
218 216 229 226 215 212 198 201 221 227 228 228 240 216 170 142 86 85 107 110 107 108 108 107 123 126 116 115 117 116 110 104 101 102 99 97 98 101 101 105 113 111 111 111 108 104 101 107 106
259 216 212 217 221 218 173 192 238 248 238 251 247 234 198 147 116 124 120 112 107 106 99 99 111 121 136 131 105 102 101 98 93 90 86 90 90 94 100 101 101 106 109 112 109 107 106 102 103
230 225 222 216 220 201 171 205 206 264 214 219 245 288 347 126 154 156 147 140 133 124 108 91 101 104 109 124 110 109 99 90 92 89 79 85 104 103 105 89 87 96 104 107 107 105 103 103 103
218 226 227 225 245 225 204 235 226 219 224 229 225 229 149 158 172 179 183 177 167 161 147 105 95 105 111 114 128 134 131 117 108 102 99 97 88 77 78 81 77 83 87 95 97 102 117 130 122
214 231 211 223 250 244 226 239 235 235 242 243 235 213 191 187 190 193 194 190 181 173 160 158 271 97 111 116 132 127 131 120 118 105 101 104 98 95 93 107 104 98 101 113 116 142 144 115 90
203 227 236 232 229 233 238 236 241 244 262 293 265 222 200 201 203 204 201 197 190 179 179 187 208 189 154 137 138 145 142 135 124 113 113 122 108 112 117 116 108 118 109 98 120 134 126 121 122
215 214 235 248 239 243 242 245 257 254 267 268 239 214 214 214 214 215 214 208 199 192 189 198 209 196 174 156 149 135 143 145 141 140 149 129 139 156 159 142 126 113 95 120 112 150 142 146 144
210 219 234 246 232 228 246 258 249 249 256 240 222 220 222 222 220 218 214 216 214 203 193 181 196 196 177 161 165 158 162 162 167 160 158 162 171 180 175 144 138 125 124 94 111 249 244 221 208
216 229 233 234 240 237 257 251 234 246 237 229 223 220 225 229 227 222 220 218 216 203 194 178 186 188 179 174 184 180 174 180 180 173 167 167 176 194 181 175 172 154 159 161 184 179 260 249 223
208 228 232 205 230 233 242 253 238 242 230 238 236 231 228 227 229 226 218 216 210 199 190 179 181 182 182 179 192 192 182 186 188 188 176 174 174 188 194 192 190 181 185 186 195 214 223 238 237
207 232 241 232 214 243 241 260 261 252 248 253 250 245 238 233 233 230 218 212 205 198 187 177 182 184 185 186 189 183 179 189 195 195 184 180 182 188 195 204 196 203 195 197 211 224 243 247 249
223 236 243 244 229 249 250 262 272 266 257 254 249 245 239 237 234 228 218 208 206 205 194 186 188 186 184 184 188 178 171 183 197 200 192 188 192 195 199 200 194 202 205 207 212 218 242 247 261
246 242 255 264 278 264 258 268 274 265 252 247 242 233 231 234 229 218 214 200 200 202 201 198 191 185 185 191 196 194 195 196 198 208 208 204 204 196 198 197 192 201 208 214 215 216 224 233 249
231 242 256 267 273 267 273 272 272 259 246 244 242 236 231 230 223 215 206 197 206 209 209 210 204 197 201 206 206 210 205 209 210 208 219 216 213 205 200 197 196 201 207 210 209 210 220 227 239
237 244 255 268 287 258 280 265 250 247 240 242 242 240 233 228 231 223 208 206 214 220 219 218 211 208 208 201 186 170 178 190 199 213 221 224 220 210 207 202 200 201 205 207 213 217 220 223 231
246 243 248 255 263 268 274 277 254 247 246 240 237 231 231 227 230 230 222 217 226 228 223 224 217 215 209 197 192 186 193 204 214 210 206 214 217 205 197 199 197 202 211 211 214 222 228 227 224
244 256 240 243 245 264 239 255 261 233 246 242 233 227 228 228 234 237 231 226 235 233 221 227 220 217 206 201 201 201 207 209 197 190 187 193 196 201 193 195 193 201 206 213 213 215 224 233 240
180 177 187 218 230 247 233 238 260 232 242 242 226 227 231 229 234 239 228 210 219 214 204 218 219 221 211 199 203 210 208 203 195 195 193 198 193 197 198 199 192 204 206 212 219 217 221 225 238
200 209 228 218 219 240 188 237 255 261 266 248 238 244 257 238 221 224 210 194 207 212 200 213 219 224 217 203 207 214 214 211 210 208 205 206 202 210 212 204 203 207 211 211 214 215 223 224 229
207 217 227 249 251 258 210 238 257 282 284 235 239 242 228 228 231 223 222 207 208 208 205 212 224 226 221 214 217 215 211 211 213 215 214 214 216 218 214 207 210 212 215 214 217 221 228 229 228
186 201 262 241 266 262 242 257 272 229 229 203 207 207 220 256 255 255 240 231 211 200 209 226 235 227 228 237 225 222 213 209 205 207 208 212 217 215 216 216 215 214 219 225 228 227 229 231 230
264 164 179 206 235 254 253 252 243 216 220 214 224 250 258 268 284 295 281 280 276 242 258 269 256 245 270 264 249 236 220 209 207 204 203 212 222 222 220 227 228 224 223 223 225 230 230 232 233
177 180 193 207 256 258 265 256 187 206 212 218 235 265 273 277 292 309 314 321 321 349 283 249 262 291 293 273 259 236 218 206 211 215 215 219 223 223 226 231 234 233 233 231 230 231 234 235 237
226 203 188 211 225 243 265 268 101 207 226 239 253 266 276 291 293 297 306 313 325 328 302 284 285 295 284 266 253 250 232 219 219 225 227 225 227 227 228 232 235 237 235 233 235 237 237 239 241